| time (UTC) | temp C | wind direction | speed KPH | gust KPH | rain 1hr cm | rain 24hr cm | rain mn cm | humidity % | barometer mb |
| 20260505061506 | 17 | 203 | 8.0 | 16.1 | 0.00 | 0.00 | 0.00 | 64 | 1016.2 |
| 20260505061006 | 17 | 182 | 9.7 | 16.1 | 0.00 | 0.00 | 0.00 | 65 | 1016.2 |
| 20260505060506 | 17 | 207 | 8.0 | 16.1 | 0.00 | 0.00 | 0.00 | 65 | 1016.1 |
| 20260505060007 | 16 | 212 | 8.0 | 12.9 | 0.00 | 0.00 | 0.00 | 65 | 1016.1 |
| 20260505055515 | 16 | 184 | 9.7 | 16.1 | 0.00 | 0.00 | 0.00 | 65 | 1016.0 |
| 20260505055006 | 16 | 189 | 8.0 | 14.5 | 0.00 | 0.00 | 0.00 | 66 | 1016.0 |
| 20260505054516 | 16 | 202 | 6.4 | 16.1 | 0.00 | 0.00 | 0.00 | 67 | 1015.9 |
| 20260505054007 | 16 | 193 | 8.0 | 14.5 | 0.00 | 0.00 | 0.00 | 67 | 1015.9 |
| 20260505053506 | 16 | 182 | 4.8 | 16.1 | 0.00 | 0.00 | 0.00 | 66 | 1015.9 |
| 20260505053005 | 16 | 181 | 4.8 | 16.1 | 0.00 | 0.00 | 0.00 | 66 | 1015.8 |
| 20260505052507 | 16 | 181 | 4.8 | 14.5 | 0.00 | 0.00 | 0.00 | 66 | 1015.8 |
| 20260505052007 | 15 | 196 | 8.0 | 12.9 | 0.00 | 0.00 | 0.00 | 66 | 1015.7 |
| 20260505051505 | 15 | 209 | 4.8 | 11.3 | 0.00 | 0.00 | 0.00 | 66 | 1015.7 |
| 20260505051010 | 15 | 204 | 4.8 | 12.9 | 0.00 | 0.00 | 0.00 | 65 | 1015.7 |
| 20260505041507 | 13 | 198 | 4.8 | 11.3 | 0.00 | 0.00 | 0.00 | 68 | 1015.5 |
| 20260505041005 | 13 | 185 | 4.8 | 12.9 | 0.00 | 0.00 | 0.00 | 68 | 1015.5 |
| 20260505040511 | 13 | 201 | 8.0 | 12.9 | 0.00 | 0.00 | 0.00 | 68 | 1015.5 |
| 20260505040007 | 13 | 213 | 6.4 | 12.9 | 0.00 | 0.00 | 0.00 | 68 | 1015.5 |
| 20260505035507 | 13 | 207 | 8.0 | 11.3 | 0.00 | 0.00 | 0.00 | 67 | 1015.5 |
| 20260505035006 | 13 | 190 | 3.2 | 9.7 | 0.00 | 0.00 | 0.00 | 67 | 1015.5 |
| 20260505034506 | 13 | 198 | 3.2 | 9.7 | 0.00 | 0.00 | 0.00 | 67 | 1015.5 |
| 20260505034007 | 13 | 205 | 3.2 | 9.7 | 0.00 | 0.00 | 0.00 | 66 | 1015.5 |
| 20260505033512 | 13 | 197 | 4.8 | 9.7 | 0.00 | 0.00 | 0.00 | 66 | 1015.5 |
| 20260505033007 | 13 | 205 | 4.8 | 11.3 | 0.00 | 0.00 | 0.00 | 65 | 1015.5 |
| 20260505032507 | 13 | 204 | 4.8 | 9.7 | 0.00 | 0.00 | 0.00 | 65 | 1015.6 |
| 20260505032006 | 13 | 200 | 4.8 | 8.0 | 0.00 | 0.00 | 0.00 | 66 | 1015.6 |
| 20260505031506 | 13 | 204 | 3.2 | 8.0 | 0.00 | 0.00 | 0.00 | 66 | 1015.6 |
| 20260505031007 | 13 | 195 | 3.2 | 8.0 | 0.00 | 0.00 | 0.00 | 64 | 1015.7 |
| 20260505030006 | 13 | 211 | 4.8 | 8.0 | 0.00 | 0.00 | 0.00 | 63 | 1015.7 |
| 20260505025505 | 13 | 203 | 3.2 | 9.7 | 0.00 | 0.00 | 0.00 | 64 | 1015.8 |
| 20260505025007 | 13 | 202 | 4.8 | 8.0 | 0.00 | 0.00 | 0.00 | 65 | 1015.8 |
| 20260505024505 | 13 | 189 | 1.6 | 3.2 | 0.00 | 0.00 | 0.00 | 66 | 1015.8 |
| 20260505024009 | 13 | 188 | 1.6 | 3.2 | 0.00 | 0.00 | 0.00 | 65 | 1015.9 |
| 20260505023507 | 13 | 192 | 1.6 | 3.2 | 0.00 | 0.00 | 0.00 | 65 | 1015.9 |
| 20260505023007 | 13 | 187 | 0.0 | 4.8 | 0.00 | 0.00 | 0.00 | 66 | 1015.9 |
| 20260505022506 | 13 | 187 | 1.6 | 4.8 | 0.00 | 0.00 | 0.00 | 66 | 1015.9 |
| 20260505022007 | 13 | 187 | 0.0 | 1.6 | 0.00 | 0.00 | 0.00 | 64 | 1015.9 |
| 20260505021508 | 13 | 188 | 0.0 | 3.2 | 0.00 | 0.00 | 0.00 | 63 | 1015.9 |
| 20260505021008 | 14 | 189 | 1.6 | 3.2 | 0.00 | 0.00 | 0.00 | 61 | 1015.8 |
| 20260505020506 | 14 | 194 | 1.6 | 4.8 | 0.00 | 0.00 | 0.00 | 60 | 1015.8 |
| 20260505020015 | 14 | 194 | 3.2 | 8.0 | 0.00 | 0.00 | 0.00 | 60 | 1015.8 |
| 20260505015506 | 14 | 205 | 3.2 | 4.8 | 0.00 | 0.00 | 0.00 | 61 | 1015.8 |
| 20260505014508 | 14 | 203 | 1.6 | 4.8 | 0.00 | 0.00 | 0.00 | 61 | 1015.9 |
| 20260505013506 | 14 | 188 | 1.6 | 4.8 | 0.00 | 0.00 | 0.00 | 60 | 1015.8 |
| 20260505013005 | 15 | 187 | 1.6 | 4.8 | 0.00 | 0.00 | 0.00 | 60 | 1015.8 |
| 20260505012505 | 15 | 198 | 1.6 | 8.0 | 0.00 | 0.00 | 0.00 | 59 | 1015.8 |
| 20260505011506 | 15 | 204 | 1.6 | 4.8 | 0.00 | 0.00 | 0.00 | 58 | 1015.9 |
| 20260505010507 | 15 | 198 | 3.2 | 4.8 | 0.00 | 0.00 | 0.00 | 59 | 1015.9 |
| 20260505010010 | 15 | 202 | 3.2 | 4.8 | 0.00 | 0.00 | 0.00 | 59 | 1016.0 |
| 20260505005505 | 15 | 204 | 3.2 | 4.8 | 0.00 | 0.00 | 0.00 | 60 | 1016.0 |
| 20260505005007 | 15 | 197 | 3.2 | 4.8 | 0.00 | 0.00 | 0.00 | 60 | 1016.0 |
| 20260505004507 | 14 | 197 | 3.2 | 4.8 | 0.00 | 0.00 | 0.00 | 60 | 1016.0 |
| 20260505003507 | 14 | 202 | 3.2 | 4.8 | 0.00 | 0.00 | 0.00 | 61 | 1016.1 |
| 20260505003007 | 14 | 203 | 3.2 | 4.8 | 0.00 | 0.00 | 0.00 | 61 | 1016.1 |
| 20260505002507 | 14 | 197 | 3.2 | 8.0 | 0.00 | 0.00 | 0.00 | 61 | 1016.2 |
| 20260505001505 | 14 | 200 | 3.2 | 8.0 | 0.00 | 0.00 | 0.00 | 61 | 1016.2 |
| 20260505001005 | 14 | 194 | 4.8 | 8.0 | 0.00 | 0.00 | 0.00 | 61 | 1016.2 |
| 20260505000507 | 14 | 203 | 4.8 | 9.7 | 0.00 | 0.00 | 0.00 | 61 | 1016.3 |
| 20260505000005 | 14 | 204 | 4.8 | 9.7 | 0.00 | 0.00 | 0.00 | 61 | 1016.3 |
| 20260504235505 | 15 | 209 | 4.8 | 9.7 | 0.00 | 0.00 | 0.00 | 61 | 1016.3 |
| 20260504234506 | 15 | 211 | 6.4 | 11.3 | 0.00 | 0.00 | 0.00 | 60 | 1016.4 |
| 20260504234006 | 15 | 209 | 4.8 | 8.0 | 0.00 | 0.00 | 0.00 | 59 | 1016.4 |
| 20260504233505 | 15 | 211 | 3.2 | 9.7 | 0.00 | 0.00 | 0.00 | 58 | 1016.5 |
| 20260504233011 | 15 | 196 | 4.8 | 9.7 | 0.00 | 0.00 | 0.00 | 58 | 1016.5 |
| 20260504232506 | 15 | 204 | 4.8 | 9.7 | 0.00 | 0.00 | 0.00 | 58 | 1016.6 |
| 20260504232007 | 15 | 196 | 4.8 | 9.7 | 0.00 | 0.00 | 0.00 | 58 | 1016.7 |
| 20260504231506 | 15 | 201 | 4.8 | 9.7 | 0.00 | 0.00 | 0.00 | 58 | 1016.7 |
| 20260504230011 | 15 | 199 | 4.8 | 9.7 | 0.00 | 0.00 | 0.00 | 58 | 1017.0 |
| 20260504225506 | 15 | 199 | 4.8 | 9.7 | 0.00 | 0.00 | 0.00 | 58 | 1016.9 |
| 20260504225006 | 15 | 203 | 4.8 | 9.7 | 0.00 | 0.00 | 0.00 | 58 | 1017.0 |
| 20260504224505 | 15 | 202 | 4.8 | 9.7 | 0.00 | 0.00 | 0.00 | 59 | 1017.0 |
| 20260504224007 | 15 | 204 | 4.8 | 9.7 | 0.00 | 0.00 | 0.00 | 59 | 1017.0 |
| 20260504223005 | 15 | 202 | 3.2 | 9.7 | 0.00 | 0.00 | 0.00 | 59 | 1017.1 |
| 20260504222506 | 15 | 206 | 4.8 | 12.9 | 0.00 | 0.00 | 0.00 | 59 | 1017.2 |
| 20260504222007 | 15 | 209 | 6.4 | 11.3 | 0.00 | 0.00 | 0.00 | 59 | 1017.2 |
| 20260504221506 | 15 | 209 | 8.0 | 12.9 | 0.00 | 0.00 | 0.00 | 59 | 1017.2 |
| 20260504221007 | 15 | 209 | 8.0 | 11.3 | 0.00 | 0.00 | 0.00 | 59 | 1017.2 |
| 20260504220510 | 15 | 203 | 4.8 | 9.7 | 0.00 | 0.00 | 0.00 | 59 | 1017.3 |
| 20260504220011 | 15 | 195 | 4.8 | 8.0 | 0.00 | 0.00 | 0.00 | 59 | 1017.3 |
| 20260504215510 | 15 | 214 | 4.8 | 9.7 | 0.00 | 0.00 | 0.00 | 59 | 1017.3 |
| 20260504215011 | 15 | 213 | 4.8 | 9.7 | 0.00 | 0.00 | 0.00 | 59 | 1017.2 |
| 20260504214506 | 15 | 200 | 4.8 | 8.0 | 0.00 | 0.00 | 0.00 | 59 | 1017.2 |
| 20260504214005 | 15 | 193 | 4.8 | 9.7 | 0.00 | 0.00 | 0.00 | 59 | 1017.2 |
| 20260504213511 | 15 | 200 | 4.8 | 8.0 | 0.00 | 0.00 | 0.00 | 60 | 1017.3 |
| 20260504213006 | 15 | 201 | 4.8 | 11.3 | 0.00 | 0.00 | 0.00 | 60 | 1017.3 |
| 20260504212011 | 15 | 198 | 4.8 | 11.3 | 0.00 | 0.00 | 0.00 | 60 | 1017.2 |
| 20260504211507 | 16 | 204 | 4.8 | 8.0 | 0.00 | 0.00 | 0.00 | 60 | 1017.3 |
| 20260504211007 | 15 | 208 | 4.8 | 8.0 | 0.00 | 0.00 | 0.00 | 61 | 1017.3 |
| 20260504210506 | 15 | 201 | 3.2 | 8.0 | 0.00 | 0.00 | 0.00 | 62 | 1017.3 |
| 20260504210005 | 16 | 197 | 4.8 | 8.0 | 0.00 | 0.00 | 0.00 | 62 | 1017.3 |
| 20260504205505 | 16 | 202 | 4.8 | 8.0 | 0.00 | 0.00 | 0.00 | 62 | 1017.3 |
| 20260504205011 | 16 | 209 | 4.8 | 9.7 | 0.00 | 0.00 | 0.00 | 62 | 1017.3 |
| 20260504204505 | 16 | 200 | 4.8 | 8.0 | 0.00 | 0.00 | 0.00 | 62 | 1017.3 |
| 20260504204005 | 16 | 201 | 4.8 | 9.7 | 0.00 | 0.00 | 0.00 | 62 | 1017.3 |
| 20260504203507 | 16 | 210 | 3.2 | 8.0 | 0.00 | 0.00 | 0.00 | 63 | 1017.4 |
| 20260504203011 | 16 | 190 | 1.6 | 4.8 | 0.00 | 0.00 | 0.00 | 62 | 1017.3 |
| 20260504202507 | 16 | 185 | 3.2 | 4.8 | 0.00 | 0.00 | 0.00 | 61 | 1017.3 |
| 20260504201507 | 16 | 200 | 3.2 | 4.8 | 0.00 | 0.00 | 0.00 | 60 | 1017.3 |
| 20260504201005 | 16 | 202 | 3.2 | 8.0 | 0.00 | 0.00 | 0.00 | 61 | 1017.3 |
| 20260504200507 | 16 | 204 | 3.2 | 8.0 | 0.00 | 0.00 | 0.00 | 61 | 1017.3 |
| 20260504200007 | 16 | 208 | 4.8 | 11.3 | 0.00 | 0.00 | 0.00 | 61 | 1017.2 |
| 20260504195506 | 16 | 201 | 4.8 | 8.0 | 0.00 | 0.00 | 0.00 | 61 | 1017.2 |
| 20260504195011 | 16 | 198 | 4.8 | 4.8 | 0.00 | 0.00 | 0.00 | 60 | 1017.1 |
| 20260504194007 | 16 | 209 | 4.8 | 9.7 | 0.00 | 0.00 | 0.00 | 61 | 1017.2 |
| 20260504193507 | 16 | 199 | 4.8 | 9.7 | 0.00 | 0.00 | 0.00 | 62 | 1017.1 |
| 20260504193008 | 16 | 204 | 6.4 | 9.7 | 0.00 | 0.00 | 0.00 | 63 | 1017.1 |
| 20260504192506 | 16 | 193 | 3.2 | 8.0 | 0.00 | 0.00 | 0.00 | 63 | 1017.0 |
| 20260504192010 | 16 | 192 | 3.2 | 4.8 | 0.00 | 0.00 | 0.00 | 62 | 1017.0 |
| 20260504191507 | 17 | 202 | 3.2 | 9.7 | 0.00 | 0.00 | 0.00 | 62 | 1017.0 |
| 20260504190506 | 17 | 208 | 3.2 | 8.0 | 0.00 | 0.00 | 0.00 | 61 | 1016.9 |
| 20260504190007 | 17 | 197 | 4.8 | 9.7 | 0.00 | 0.00 | 0.00 | 61 | 1016.9 |
| 20260504185507 | 17 | 212 | 3.2 | 8.0 | 0.00 | 0.00 | 0.00 | 60 | 1016.9 |
| 20260504185005 | 17 | 211 | 4.8 | 4.8 | 0.00 | 0.00 | 0.00 | 59 | 1016.8 |
| 20260504184507 | 17 | 207 | 1.6 | 4.8 | 0.00 | 0.00 | 0.00 | 58 | 1016.8 |
| 20260504183509 | 18 | 206 | 1.6 | 4.8 | 0.00 | 0.00 | 0.00 | 54 | 1016.9 |
| 20260504183013 | 18 | 197 | 1.6 | 4.8 | 0.00 | 0.00 | 0.00 | 51 | 1016.8 |
| 20260504182508 | 18 | 195 | 0.0 | 1.6 | 0.00 | 0.00 | 0.00 | 49 | 1016.8 |
| 20260504182007 | 18 | 194 | 0.0 | 1.6 | 0.00 | 0.00 | 0.00 | 49 | 1016.7 |
| 20260504181505 | 18 | 199 | 0.0 | 1.6 | 0.00 | 0.00 | 0.00 | 48 | 1016.7 |
| 20260504181011 | 18 | 208 | 0.0 | 1.6 | 0.00 | 0.00 | 0.00 | 47 | 1016.7 |
| 20260504180507 | 18 | 209 | 0.0 | 1.6 | 0.00 | 0.00 | 0.00 | 46 | 1016.6 |
| 20260504180010 | 19 | 220 | 1.6 | 4.8 | 0.00 | 0.00 | 0.00 | 45 | 1016.7 |
| 20260504175506 | 20 | 58 | 0.0 | 1.6 | 0.00 | 0.00 | 0.00 | 43 | 1016.6 |
| 20260504175007 | 20 | 57 | 0.0 | 1.6 | 0.00 | 0.00 | 0.00 | 41 | 1016.6 |
| 20260504174006 | 20 | 57 | 0.0 | 3.2 | 0.00 | 0.00 | 0.00 | 40 | 1016.5 |
| 20260504173508 | 20 | 42 | 0.0 | 1.6 | 0.00 | 0.00 | 0.00 | 39 | 1016.5 |
| 20260504173007 | 20 | 42 | 1.6 | 3.2 | 0.00 | 0.00 | 0.00 | 39 | 1016.4 |
| 20260504172505 | 20 | 41 | 0.0 | 3.2 | 0.00 | 0.00 | 0.00 | 38 | 1016.4 |
| 20260504172007 | 20 | 41 | 0.0 | 3.2 | 0.00 | 0.00 | 0.00 | 38 | 1016.4 |
| 20260504171506 | 20 | 41 | 1.6 | 3.2 | 0.00 | 0.00 | 0.00 | 37 | 1016.4 |
| 20260504171006 | 21 | 44 | 1.6 | 4.8 | 0.00 | 0.00 | 0.00 | 37 | 1016.4 |
| 20260504151007 | 22 | 37 | 4.8 | 12.9 | 0.00 | 0.00 | 0.00 | 35 | 1016.4 |
| 20260504150507 | 23 | 47 | 4.8 | 16.1 | 0.00 | 0.00 | 0.00 | 35 | 1016.4 |
| 20260504140507 | 23 | 46 | 6.4 | 19.3 | 0.00 | 0.00 | 0.00 | 38 | 1016.6 |
| 20260504130507 | 23 | 45 | 6.4 | 16.1 | 0.00 | 0.00 | 0.00 | 42 | 1017.0 |
| 20260504110507 | 23 | 37 | 8.0 | 19.3 | 0.00 | 0.00 | 0.00 | 36 | 1017.6 |
| 20260504100513 | 23 | 9 | 4.8 | 11.3 | 0.00 | 0.00 | 0.00 | 36 | 1018.1 |
| 20260504082007 | 21 | 10 | 1.6 | 9.7 | 0.00 | 0.00 | 0.00 | 45 | 1018.5 |
| 20260504081505 | 21 | 31 | 3.2 | 9.7 | 0.00 | 0.00 | 0.00 | 45 | 1018.5 |
| 20260504081007 | 20 | 227 | 0.0 | 4.8 | 0.00 | 0.00 | 0.00 | 47 | 1018.5 |
| 20260504080507 | 20 | 44 | 4.8 | 9.7 | 0.00 | 0.00 | 0.00 | 46 | 1018.6 |